Location: Boiro
(42.6475°N, 8.8834°W)
Time: 11:55:14
(UTC+02:00)

deb Agena D - Pass Details

Date: 03 July 2022
Orbit: 997 x 1025 km, 100.1° (Epoch: 16 August)

Event Time Altitude Azimuth Distance (km) Brightness Sun altitude
Exits shadow 00:15:27 14° 103° (ESE) 2,550 ? -16.4°
Maximum altitude 00:19:24 24° 59° (ENE) 1,972 ? -16.8°
Drops below altitude 10° 00:24:18 10° 8° (N) 2,828 ? -17.3°
Sets 00:27:16 0° 356° (N) 3,783 ? -17.6°
